Waycross, GA

12:38 AM EDT on October 17, 2017 (GMT -0400)
Waycross-Ware County

Weather History for KAYS - October, 2011

Change the Weather History Date:

Tuesday, October 18, 2011

  Actual Average (KAMG) Record (KAMG)
Temperature  
Mean Temperature 70 °F -  
Max Temperature 75 °F 78 °F 90 °F (1972)
Min Temperature 64 °F 55 °F 34 °F (1954)
Cooling Degree Days 4    
Growing Degree Days 20 (Base 50)    
Moisture  
Dew Point 69 °F    
Average Humidity 97    
Maximum Humidity 100    
Minimum Humidity 94    
Precipitation  
Precipitation 0.00 in - - ()
Sea Level Pressure  
Sea Level Pressure 29.80 in    
Wind  
Wind Speed 2 mph (East)    
Max Wind Speed 15 mph    
Max Gust Speed -    
Visibility 5 miles    
Events      
Averages and records for this station are not official NWS values.
T = Trace of Precipitation, MM = Missing Value Source: NWS Daily Summary

Daily Weather History Graph

Daily Weather History Graph

Search for Another Location

Airport or City:

Trip Planner

Search our weather history database for the weather conditions in past years. The results will help you decide how hot, cold, wet, or windy it might be!

Date:

Astronomy

Oct. 18, 2011 Rise Set
Actual Time 7:34 AM EDT 6:54 PM EDT
Civil Twilight 7:09 AM EDT 7:19 PM EDT
Nautical Twilight 6:41 AM EDT 7:47 PM EDT
Astronomical Twilight 6:13 AM EDT 8:15 PM EDT
Moon 11:47 PM EDT (10/18) 1:10 PM EDT (10/18)
Length of Visible Light 12h 09m
Length of Day
11h 20m
Waning Gibbous, 65% of the Moon is Illuminated
Oct 18
Waning Gibbous
Oct 19
Last Quarter
Oct 26
New
Nov 2
First Quarter
Nov 10
Full

Hourly Weather History & Observations

Time (EDT) Temp. Dew Point Humidity Pressure Visibility Wind Dir Wind Speed Gust Speed Precip Events Conditions
12:15 AM 71.6 °F 69.8 °F 94% 29.89 in 10.0 mi Calm Calm - N/A   Unknown
12:35 AM 71.6 °F 69.8 °F 94% 29.89 in 10.0 mi Calm Calm - N/A   Unknown
12:55 AM 69.8 °F 68.0 °F 94% 29.88 in 7.0 mi Calm Calm - N/A   Unknown
1:15 AM 68.0 °F 66.2 °F 94% 29.87 in 7.0 mi Calm Calm - N/A   Unknown
1:35 AM 66.2 °F 66.2 °F 100% 29.87 in 3.0 mi Calm Calm - N/A   Unknown
1:55 AM 66.2 °F 66.2 °F 100% 29.86 in 4.0 mi Calm Calm - N/A   Clear
2:15 AM 66.2 °F 66.2 °F 100% 29.86 in 4.0 mi Calm Calm - N/A   Clear
2:35 AM 66.2 °F 66.2 °F 100% 29.86 in 4.0 mi Calm Calm - N/A   Clear
2:55 AM 66.2 °F 66.2 °F 100% 29.85 in 4.0 mi Calm Calm - N/A   Clear
3:15 AM 66.2 °F 66.2 °F 100% 29.85 in 1.5 mi Calm Calm - N/A   Mostly Cloudy
3:35 AM 66.2 °F 66.2 °F 100% 29.84 in 2.5 mi Calm Calm - N/A   Scattered Clouds
3:55 AM 66.2 °F 64.4 °F 94% 29.84 in 1.0 mi Calm Calm - N/A   Overcast
4:15 AM 64.4 °F 64.4 °F 100% 29.84 in 3.0 mi Calm Calm - N/A   Scattered Clouds
4:35 AM 64.4 °F 64.4 °F 100% 29.84 in 3.0 mi Calm Calm - N/A   Scattered Clouds
4:55 AM 64.4 °F 64.4 °F 100% 29.84 in 4.0 mi Calm Calm - N/A   Scattered Clouds
5:15 AM 66.2 °F 64.4 °F 94% 29.83 in 0.2 mi Calm Calm - N/A   Overcast
5:35 AM 64.4 °F 64.4 °F 100% 29.83 in 0.5 mi Calm Calm - N/A   Overcast
5:55 AM 64.4 °F 64.4 °F 100% 29.83 in 1.2 mi Calm Calm - N/A   Mostly Cloudy
6:15 AM 66.2 °F 64.4 °F 94% 29.83 in 0.5 mi Calm Calm - N/A   Overcast
6:35 AM 64.4 °F 64.4 °F 100% 29.82 in 0.2 mi Calm Calm - N/A   Overcast
6:55 AM 66.2 °F 64.4 °F 94% 29.83 in 0.2 mi Calm Calm - N/A   Overcast
7:15 AM 66.2 °F 66.2 °F 100% 29.83 in 0.2 mi Calm Calm - N/A   Overcast
7:35 AM 66.2 °F 66.2 °F 100% 29.82 in 0.5 mi Calm Calm - N/A   Overcast
7:55 AM 66.2 °F 66.2 °F 100% 29.83 in 0.8 mi Calm Calm - N/A   Overcast
8:15 AM 68.0 °F 68.0 °F 100% 29.82 in 4.0 mi Calm Calm - N/A   Overcast
8:35 AM 68.0 °F 68.0 °F 100% 29.82 in 3.0 mi Calm Calm - N/A   Overcast
8:55 AM 69.8 °F 69.8 °F 100% 29.83 in 3.0 mi Calm Calm - N/A   Mostly Cloudy
9:15 AM 69.8 °F 69.8 °F 100% 29.83 in 7.0 mi Calm Calm - N/A   Mostly Cloudy
9:35 AM 71.6 °F 71.6 °F 100% 29.83 in 10.0 mi ESE 8.1 mph - N/A   Mostly Cloudy
9:55 AM 71.6 °F 71.6 °F 100% 29.83 in 10.0 mi ESE 8.1 mph - N/A   Unknown
10:15 AM 71.6 °F 71.6 °F 100% 29.84 in 10.0 mi SE 10.4 mph - N/A   Unknown
10:35 AM 71.6 °F 71.6 °F 100% 29.83 in 5.0 mi ESE 6.9 mph - N/A   Unknown
10:55 AM 73.4 °F 71.6 °F 94% 29.83 in 2.5 mi East 8.1 mph - N/A   Unknown
11:15 AM 73.4 °F 73.4 °F 100% 29.82 in 10.0 mi East 9.2 mph - N/A   Unknown
11:35 AM 75.2 °F 73.4 °F 94% 29.80 in 10.0 mi East 8.1 mph - N/A   Unknown
11:55 AM 73.4 °F 71.6 °F 94% 29.80 in 10.0 mi ESE 10.4 mph - N/A   Unknown
12:15 PM 73.4 °F 71.6 °F 94% 29.80 in 2.0 mi ESE 8.1 mph - N/A   Unknown
12:35 PM 73.4 °F 73.4 °F 100% 29.78 in 4.0 mi East 6.9 mph - N/A   Unknown
12:55 PM 73.4 °F 73.4 °F 100% 29.76 in 10.0 mi East 6.9 mph - N/A   Unknown
1:15 PM 73.4 °F 73.4 °F 100% 29.75 in 10.0 mi East 6.9 mph - N/A   Unknown
1:35 PM 73.4 °F 73.4 °F 100% 29.73 in 10.0 mi East 5.8 mph - N/A   Unknown
1:55 PM 75.2 °F 73.4 °F 94% 29.72 in 7.0 mi East 4.6 mph - N/A   Unknown
2:15 PM 75.2 °F 73.4 °F 94% 29.71 in 10.0 mi East 6.9 mph - N/A   Unknown
2:35 PM 75.2 °F 73.4 °F 94% 29.70 in 10.0 mi NE 3.5 mph - N/A   Unknown
2:55 PM 75.2 °F 73.4 °F 94% 29.68 in 10.0 mi ENE 6.9 mph - N/A   Unknown
3:15 PM 75.2 °F 73.4 °F 94% 29.67 in 10.0 mi ENE 4.6 mph - N/A   Unknown
3:35 PM 75.2 °F 73.4 °F 94% 29.66 in 5.0 mi ENE 3.5 mph - N/A   Unknown
3:55 PM 75.2 °F 73.4 °F 94% 29.65 in 10.0 mi NE 5.8 mph - N/A   Unknown
4:15 PM 75.2 °F 73.4 °F 94% 29.65 in 1.5 mi NNW 15.0 mph - N/A   Unknown
4:35 PM 75.2 °F 73.4 °F 94% 29.67 in 1.8 mi Calm Calm - N/A   Unknown
4:55 PM 75.2 °F 73.4 °F 94% 29.66 in 10.0 mi Calm Calm - N/A   Unknown
5:15 PM 75.2 °F 73.4 °F 94% 29.66 in 7.0 mi Calm Calm - N/A   Unknown
5:35 PM 75.2 °F 73.4 °F 94% 29.65 in 1.0 mi ESE 9.2 mph - N/A   Unknown
5:55 PM 73.4 °F 73.4 °F 100% 29.63 in 5.0 mi SE 6.9 mph 18.4 mph N/A   Unknown
6:15 PM 73.4 °F 73.4 °F 100% 29.63 in 10.0 mi ESE 6.9 mph - N/A   Unknown
6:35 PM 73.4 °F 73.4 °F 100% 29.62 in 7.0 mi ESE 5.8 mph - N/A   Unknown
6:55 PM 73.4 °F 73.4 °F 100% 29.60 in 10.0 mi ESE 8.1 mph - N/A   Unknown
7:15 PM 73.4 °F 73.4 °F 100% 29.61 in 10.0 mi Calm Calm - N/A   Unknown
7:35 PM 73.4 °F 73.4 °F 100% 29.62 in 10.0 mi Calm Calm - N/A   Unknown
7:55 PM 73.4 °F 73.4 °F 100% 29.62 in 10.0 mi Calm Calm - N/A   Unknown
8:15 PM 73.4 °F 73.4 °F 100% 29.62 in 10.0 mi Calm Calm - N/A   Unknown
8:35 PM 73.4 °F 73.4 °F 100% 29.61 in 7.0 mi Calm Calm - N/A   Unknown
8:55 PM 73.4 °F 71.6 °F 94% 29.60 in 7.0 mi Calm Calm - N/A   Unknown
9:15 PM 73.4 °F 73.4 °F 100% 29.60 in 10.0 mi Calm Calm - N/A   Unknown
9:35 PM 73.4 °F 73.4 °F 100% 29.59 in 7.0 mi Calm Calm - N/A   Unknown
9:55 PM 73.4 °F 73.4 °F 100% 29.59 in 7.0 mi Calm Calm - N/A   Unknown
10:15 PM 73.4 °F 71.6 °F 94% 29.58 in 5.0 mi Calm Calm - N/A   Unknown
10:35 PM 73.4 °F 73.4 °F 100% 29.58 in 7.0 mi Calm Calm - N/A   Unknown
10:55 PM 73.4 °F 73.4 °F 100% 29.58 in 7.0 mi Calm Calm - N/A   Unknown
11:15 PM 73.4 °F 73.4 °F 100% 29.57 in 10.0 mi Calm Calm - N/A   Unknown
11:35 PM 73.4 °F 73.4 °F 100% 29.56 in 10.0 mi Calm Calm - N/A   Unknown
11:55 PM 73.4 °F 73.4 °F 100% 29.55 in 7.0 mi Calm Calm - N/A   Unknown